Wind_Speed
5 6 6 8 10 10 11 12 12 13 14 16 17 19 20 21 24 25 27 29 30 29 27 30 31 29 27 26 27 27 26 25 10 15 21 23 23 27 30 29 28 24 25
6 8 10 9 11 12 12 14 16 17 17 18 20 21 23 24 24 26 28 30 30 31 32 33 32 32 32 33 33 32 30 28 25 18 24 28 29 29 24 18 19 24 26
10 12 14 12 13 15 16 17 18 19 20 22 22 24 25 26 27 28 29 30 29 31 34 35 35 34 33 34 34 30 27 30 33 30 23 17 23 27 28 30 27 23 27
16 18 17 18 18 20 23 22 22 22 22 22 23 24 25 26 26 27 28 30 31 29 30 29 29 32 36 36 35 34 34 34 31 29 28 26 25 29 29 25 17 21 25
18 19 20 22 22 23 23 24 24 25 25 25 26 27 27 27 26 28 25 23 23 24 24 24 26 28 28 27 32 36 34 33 30 26 24 22 22 24 16 7 16 20 25
19 21 22 24 25 24 25 25 26 26 24 23 23 25 26 27 26 29 28 27 22 21 23 24 25 27 30 33 34 33 32 35 33 29 25 21 21 19 17 14 12 12 6
20 23 24 25 25 25 24 23 23 24 24 24 25 24 23 23 26 30 33 33 27 25 26 27 30 31 31 30 30 30 30 27 28 37 34 32 26 28 25 20 17 17 18
21 23 24 25 25 24 25 25 24 22 22 23 24 25 28 27 30 35 38 42 41 39 37 33 31 32 32 30 31 32 29 25 25 22 25 33 35 33 29 26 25 23 23
21 24 25 24 26 24 24 25 27 27 28 29 28 27 29 35 40 40 33 31 28 31 30 28 28 30 31 31 35 29 26 30 32 32 31 30 29 28 24 24 22 15 10
21 22 21 22 25 26 27 28 26 23 24 29 36 36 34 37 34 33 35 28 25 27 28 28 29 32 32 30 26 26 28 25 26 33 31 31 25 23 20 25 26 16 13
18 19 20 23 25 25 24 23 31 36 32 29 29 32 31 30 35 35 32 31 27 25 26 27 26 27 28 32 33 33 31 31 30 31 29 23 21 25 20 28 30 27 19
20 21 23 24 23 24 34 33 27 26 25 27 26 28 27 26 26 29 30 30 30 27 26 26 27 29 31 30 31 35 35 33 31 28 25 22 21 20 23 25 25 24 24
22 23 24 25 34 27 26 25 28 23 22 23 21 22 25 24 24 25 27 27 24 26 28 25 19 28 36 35 34 34 34 32 27 23 22 23 25 27 26 22 22 24 21
22 24 27 26 26 24 24 23 24 23 21 21 21 21 22 25 25 22 21 20 22 21 14 15 25 31 27 26 27 26 25 18 20 22 21 17 18 20 23 25 21 18 14
23 27 25 22 25 26 24 24 25 27 24 25 27 25 23 24 28 25 22 19 16 12 19 20 20 22 16 16 19 22 18 17 23 23 18 19 20 18 21 21 20 16 11
27 22 23 24 23 24 24 28 25 26 29 30 33 35 35 37 42 42 39 35 32 28 22 18 19 19 17 15 17 20 22 23 24 21 20 18 16 18 16 21 20 17 16
24 25 23 24 23 22 22 21 24 36 26 27 28 31 31 35 34 33 29 28 24 19 17 16 17 19 18 15 19 20 19 20 21 19 19 19 17 15 14 14 18 19 15
24 24 23 22 22 23 23 23 23 22 23 30 29 31 25 24 22 20 17 13 12 13 16 15 16 20 18 18 14 17 20 20 22 19 18 15 14 21 21 20 20 19 21
23 22 22 23 23 24 25 23 21 21 22 24 26 27 20 21 18 12 8 9 9 11 14 15 18 21 21 22 22 23 19 17 17 17 16 16 17 20 18 17 21 17 15
22 22 22 22 23 22 20 19 20 20 20 21 21 22 22 17 13 10 6 6 9 12 15 13 15 22 26 24 22 19 16 14 15 14 15 16 18 17 16 18 18 18 18
21 21 22 20 20 21 19 20 20 20 20 21 22 24 27 15 13 14 8 6 9 13 13 15 18 19 17 14 17 11 8 9 12 12 13 17 17 21 21 16 21 22 17
21 21 20 20 21 20 21 20 20 20 21 21 23 24 26 19 12 12 11 7 9 11 14 18 22 24 13 8 3 7 7 8 11 13 16 19 20 22 22 23 29 24 19
21 21 21 21 20 21 20 20 20 21 21 22 22 22 22 20 16 10 12 12 7 11 13 15 20 18 9 11 8 3 4 12 10 13 17 13 10 13 9 14 20 27 26
23 22 21 22 22 21 21 21 22 22 22 22 23 23 22 24 19 12 12 8 12 10 14 16 19 22 6 10 10 14 12 12 12 13 14 10 10 17 27 30 13 30 31
25 23 23 23 23 23 23 22 22 23 23 22 23 24 23 23 23 21 15 7 10 11 11 15 18 17 11 13 12 10 11 12 4 9 12 13 26 37 20 17 17 27 31
24 24 24 24 25 25 24 24 24 24 24 24 24 23 24 22 23 23 21 15 10 10 10 12 14 11 10 11 9 9 8 7 4 14 19 24 22 22 29 30 30 29 27
Wind_Direction
6 342 335 339 335 325 322 314 308 303 300 296 293 293 285 276 270 266 261 258 258 259 254 254 254 254 251 253 254 257 263 270 268 282 287 293 293 295 289 288 285 291 285
331 328 320 312 306 304 299 296 296 294 293 292 290 287 283 279 277 274 268 260 259 261 261 261 257 253 255 255 254 257 259 262 270 276 271 276 275 275 277 272 278 286 284
323 312 304 310 305 301 298 295 291 290 288 287 285 285 285 283 282 280 278 276 272 263 259 258 260 263 261 255 256 256 255 253 249 252 258 269 287 292 289 286 282 283 288
325 312 310 312 309 304 295 291 288 285 284 284 285 285 283 283 284 285 285 285 284 283 280 279 274 258 252 255 255 256 259 259 265 271 273 273 277 277 274 265 268 285 287
308 307 309 308 304 300 296 292 288 286 284 283 282 280 282 282 282 282 283 287 294 301 297 296 293 286 286 289 271 255 253 255 254 256 261 263 266 274 261 298 305 302 303
311 306 302 302 298 299 297 294 290 288 288 289 289 289 287 284 284 281 294 306 304 300 296 293 291 292 292 291 289 290 279 254 255 252 253 250 256 283 293 283 281 310 306
306 305 303 304 303 301 303 307 309 309 306 301 297 295 296 296 295 295 292 295 300 293 288 286 285 281 283 290 292 289 290 292 289 254 247 250 256 262 274 283 285 286 287
303 302 304 304 305 312 314 313 318 323 321 315 306 303 298 293 288 287 288 289 290 285 281 278 276 275 273 274 281 280 281 288 288 296 284 261 254 256 259 267 274 280 283
309 306 307 313 316 321 325 325 320 315 308 303 299 295 292 291 291 289 291 287 276 275 276 274 272 270 269 268 269 275 272 269 275 280 284 275 255 244 249 267 262 258 273
310 313 323 331 324 321 315 310 305 304 301 298 295 287 283 282 280 278 280 272 273 276 278 273 270 269 269 274 269 263 263 263 272 272 272 257 247 252 245 255 252 245 247
342 333 325 320 315 308 307 306 304 299 292 286 283 283 280 277 277 279 275 275 269 273 274 275 273 270 270 271 269 264 264 266 261 260 253 232 234 242 256 259 252 238 230
334 324 319 315 311 307 305 299 292 288 287 286 286 285 284 281 277 278 280 276 273 264 267 271 274 275 270 259 269 273 270 269 252 251 250 233 234 238 245 244 241 247 243
325 317 312 310 307 300 293 294 295 291 284 285 286 286 290 291 286 284 283 282 275 274 267 265 283 297 272 269 270 269 273 270 235 234 253 229 234 231 241 251 253 246 235
321 315 313 304 303 302 299 294 291 289 287 285 286 285 288 289 288 286 281 278 278 279 263 283 289 297 280 262 269 267 275 238 213 228 238 237 243 248 237 244 230 218 220
321 313 307 307 307 304 298 293 288 285 281 282 282 281 281 281 280 280 279 281 280 271 294 304 300 299 258 247 253 265 262 237 229 232 236 235 232 245 228 231 198 185 189
313 310 309 307 305 302 301 303 297 290 297 292 289 282 278 276 282 285 283 276 276 277 280 276 281 285 270 240 242 248 247 234 228 229 231 233 240 236 210 189 175 179 159
308 307 306 307 304 302 302 301 305 313 306 302 304 304 299 291 298 299 292 285 278 270 259 259 262 273 278 252 254 245 248 250 220 215 220 227 219 206 195 178 175 186 159
310 309 308 304 302 301 300 298 295 293 299 308 315 313 308 317 313 305 296 286 265 251 246 250 258 271 279 278 271 248 263 242 216 214 218 221 209 176 180 182 177 180 169
316 313 310 307 303 302 300 297 299 305 309 309 316 321 319 331 322 320 296 261 255 245 243 241 247 259 276 281 281 280 257 239 220 206 211 211 200 177 182 174 174 173 186
320 318 317 315 312 311 312 314 320 318 318 319 319 320 323 334 323 320 299 273 256 260 266 258 268 269 270 267 270 274 264 217 209 219 202 201 182 183 176 187 190 210 216
327 326 328 328 326 325 329 329 325 324 322 324 321 321 327 324 306 318 300 282 273 272 286 285 298 304 310 283 281 275 239 224 212 204 205 197 186 186 187 183 205 203 193
337 333 335 335 334 335 332 331 331 332 329 328 327 328 336 323 313 324 324 308 290 294 295 310 315 321 321 343 303 275 240 226 219 219 198 165 165 193 204 160 190 209 220
346 349 348 347 344 340 339 341 340 338 335 334 333 333 335 331 327 330 329 346 306 304 310 320 328 334 353 359 12 102 92 75 109 134 150 149 169 215 232 250 250 168 141
359 355 354 353 351 350 349 347 345 344 343 341 340 340 339 338 337 350 336 329 346 324 317 322 337 338 60 36 43 53 58 42 57 105 147 199 216 189 269 207 157 146 148
5 2 2 356 353 352 350 350 348 348 347 345 343 340 340 342 340 345 337 325 342 339 325 325 340 2 66 63 49 28 45 41 57 169 183 236 259 262 203 139 152 144 143
359 4 4 3 2 357 354 353 352 351 348 346 344 342 341 340 342 345 349 333 336 329 326 323 340 2 58 62 23 17 24 346 179 287 301 282 280 142 161 152 143 131 141
Height
766 767 767 764 762 763 763 763 761 759 758 756 755 754 754 753 753 752 752 752 750 748 749 748 748 748 748 748 748 748 748 748 744 742 743 743 742 742 741 739 737 737 736
765 765 765 765 764 763 762 761 759 757 756 755 754 753 751 750 749 747 746 746 743 742 741 741 740 741 740 741 741 741 741 740 740 737 737 736 735 735 733 733 732 730 729
765 766 766 763 762 761 759 758 757 754 752 751 749 748 747 744 743 742 740 738 735 733 733 732 732 734 733 734 734 732 733 732 731 730 728 728 728 729 729 727 725 724 722
766 764 763 760 759 756 755 752 752 750 747 746 745 743 742 740 738 736 734 731 729 727 725 724 724 722 722 723 725 725 726 726 725 724 721 721 723 723 721 719 718 719 716
764 762 760 757 754 753 751 749 746 744 742 740 739 737 736 735 733 731 728 724 722 720 719 718 717 716 715 715 716 715 717 717 718 717 716 716 716 716 715 714 714 714 712
762 759 756 755 752 746 745 744 740 737 735 734 732 731 729 728 728 723 720 718 717 717 715 713 713 712 710 709 708 707 707 708 708 710 709 708 709 709 709 710 711 711 711
759 757 753 751 747 744 742 739 736 733 731 730 728 726 723 721 720 717 715 712 711 711 709 708 707 706 705 704 702 699 699 698 698 699 699 701 701 704 706 706 709 709 710
755 753 750 747 744 741 738 735 732 730 728 726 723 721 718 716 713 711 710 706 704 703 701 699 698 696 697 697 696 693 692 691 691 690 690 691 694 696 698 701 703 704 706
750 748 746 744 741 738 736 734 731 728 724 722 719 716 712 708 706 703 702 700 697 694 692 691 690 688 688 688 688 686 684 682 683 684 684 684 686 687 691 694 698 700 700
747 745 743 743 741 738 736 732 729 726 722 718 713 710 705 701 698 696 696 693 690 687 685 682 681 680 679 680 678 677 675 675 677 678 680 679 679 681 683 687 691 693 695
744 744 744 743 741 738 733 729 725 720 716 711 707 701 698 695 689 687 686 685 682 680 678 674 672 671 671 670 670 670 668 670 669 671 671 669 670 675 675 680 681 683 685
745 745 743 741 737 734 729 722 718 714 709 704 700 694 689 686 682 679 677 676 674 673 670 668 666 664 662 661 661 661 660 659 660 662 662 661 663 665 670 671 672 674 676
745 743 740 737 732 726 722 717 712 708 703 698 694 688 682 678 675 672 669 667 666 665 663 661 659 656 654 653 652 651 650 649 649 652 653 653 656 657 662 665 666 667 668
743 740 736 729 725 721 717 712 707 702 697 693 688 683 677 672 668 666 663 661 660 658 656 654 652 649 645 643 644 643 642 639 641 644 645 646 649 651 654 657 660 659 663
741 736 730 726 721 715 710 706 701 695 693 687 682 678 673 667 661 659 658 656 655 653 652 650 647 643 638 637 637 635 635 636 637 638 640 642 644 646 647 649 653 656 658
737 731 726 721 716 711 705 696 693 689 683 679 674 670 664 658 653 649 648 648 648 648 648 646 643 639 634 632 632 631 629 629 630 632 634 637 640 641 642 642 648 651 652
733 727 722 717 712 707 702 697 688 674 676 671 666 660 655 650 645 641 640 639 639 641 641 639 638 634 629 627 626 624 622 621 623 626 628 631 634 636 639 642 644 650 651
729 724 718 713 708 703 698 693 688 681 672 663 659 654 648 645 640 637 635 634 634 635 635 634 633 629 625 622 618 617 615 616 617 620 623 625 629 634 638 640 643 647 647
725 719 715 710 704 699 694 689 683 677 670 663 655 649 645 641 637 634 632 632 632 631 631 630 628 625 621 618 614 612 611 611 614 616 619 623 626 631 634 638 642 646 652
721 717 712 707 701 696 691 686 681 675 668 662 655 649 643 640 636 633 631 631 630 629 628 624 622 619 615 611 610 608 607 609 611 614 617 620 624 629 632 637 642 645 648
720 715 710 705 700 695 690 686 680 674 668 662 655 649 644 640 637 634 631 630 630 628 625 622 618 614 610 607 605 604 606 607 610 612 614 618 622 625 631 638 640 639 645
719 714 710 705 700 695 691 686 680 675 669 662 655 648 643 639 636 634 631 631 630 627 624 620 616 612 608 604 605 605 605 606 607 609 611 615 618 617 623 636 638 641 647
720 716 711 706 701 696 691 686 680 675 669 663 657 650 644 640 637 635 632 630 629 627 624 621 616 613 609 606 603 604 605 604 607 608 610 615 621 624 629 631 639 639 643
723 718 713 708 702 697 692 687 682 676 671 664 658 652 647 642 638 636 633 632 630 628 625 622 618 614 611 610 608 607 606 606 610 615 614 616 627 636 637 633 634 633 641
726 721 716 710 704 699 694 688 683 678 673 667 660 654 649 644 640 637 635 633 631 629 627 623 620 617 616 613 613 611 613 614 614 615 622 629 625 636 626 627 633 631 638
728 724 719 713 708 703 697 691 686 680 675 669 663 657 652 647 643 640 636 633 632 630 628 626 622 622 621 619 618 617 617 619 623 618 620 619 617 618 622 627 631 635 641